owner,sensor,date,latitude,longitude,air_temperature,qcFlag 
TCOON,ioos:station:TCOON:009:1,2016-06-02T18:48:00Z,27.8398,-97.0727,29.1,1111122 
TCOON,ioos:station:TCOON:009:1,2016-06-02T19:36:00Z,27.8398,-97.0727,27.5,1111122 
TCOON,ioos:station:TCOON:009:1,2016-06-02T20:18:00Z,27.8398,-97.0727,26.9,1111122 
TCOON,ioos:station:TCOON:009:1,2016-06-02T20:48:00Z,27.8398,-97.0727,24.7,11111222 
TCOON,ioos:station:TCOON:009:1,2016-06-02T20:54:00Z,27.8398,-97.0727,24.1,11111222 
TCOON,ioos:station:TCOON:009:1,2016-06-02T21:00:00Z,27.8398,-97.0727,24.4,11111222 
TCOON,ioos:station:TCOON:009:1,2016-06-02T21:06:00Z,27.8398,-97.0727,24.1,11111222 
TCOON,ioos:station:TCOON:009:1,2016-06-02T21:12:00Z,27.8398,-97.0727,23.6,11111222 
TCOON,ioos:station:TCOON:009:1,2016-06-02T21:18:00Z,27.8398,-97.0727,23.2,11111222 
TCOON,ioos:station:TCOON:009:1,2016-06-02T21:24:00Z,27.8398,-97.0727,23.2,11111222 
TCOON,ioos:station:TCOON:009:1,2016-06-02T21:30:00Z,27.8398,-97.0727,23.5,11111222 
TCOON,ioos:station:TCOON:009:1,2016-06-02T21:36:00Z,27.8398,-97.0727,23.5,1111122 
TCOON,ioos:station:TCOON:009:1,2016-06-02T21:54:00Z,27.8398,-97.0727,24.2,11111222 
TCOON,ioos:station:TCOON:009:1,2016-06-02T22:00:00Z,27.8398,-97.0727,23.6,11111222 
TCOON,ioos:station:TCOON:009:1,2016-06-02T22:06:00Z,27.8398,-97.0727,23.3,11111222 
TCOON,ioos:station:TCOON:009:1,2016-06-02T22:12:00Z,27.8398,-97.0727,23.4,11111222 
TCOON,ioos:station:TCOON:009:1,2016-06-02T22:18:00Z,27.8398,-97.0727,23.7,11111222 
TCOON,ioos:station:TCOON:009:1,2016-06-02T22:24:00Z,27.8398,-97.0727,23.7,1111122 
TCOON,ioos:station:TCOON:009:1,2016-06-02T23:30:00Z,27.8398,-97.0727,25.3,1111122 
TCOON,ioos:station:TCOON:009:1,2016-06-03T00:06:00Z,27.8398,-97.0727,25.8,11111222 
TCOON,ioos:station:TCOON:009:1,2016-06-03T00:12:00Z,27.8398,-97.0727,25.6,11111222 
TCOON,ioos:station:TCOON:009:1,2016-06-03T00:18:00Z,27.8398,-97.0727,25.8,11111222 
TCOON,ioos:station:TCOON:009:1,2016-06-03T00:24:00Z,27.8398,-97.0727,25.8,1111122 
TCOON,ioos:station:TCOON:009:1,2016-06-03T01:06:00Z,27.8398,-97.0727,26.3,11111222 
TCOON,ioos:station:TCOON:009:1,2016-06-03T01:12:00Z,27.8398,-97.0727,26.2,11111222 
TCOON,ioos:station:TCOON:009:1,2016-06-03T01:18:00Z,27.8398,-97.0727,26.2,1111122 
TCOON,ioos:station:TCOON:009:1,2016-06-03T02:06:00Z,27.8398,-97.0727,26.1,11111222 
TCOON,ioos:station:TCOON:009:1,2016-06-03T02:12:00Z,27.8398,-97.0727,26.0,11111222 
TCOON,ioos:station:TCOON:009:1,2016-06-03T02:18:00Z,27.8398,-97.0727,26.1,11111222 
TCOON,ioos:station:TCOON:009:1,2016-06-03T02:36:00Z,27.8398,-97.0727,26.1,1111122 
TCOON,ioos:station:TCOON:009:1,2016-06-03T03:06:00Z,27.8398,-97.0727,25.9,11111222 
TCOON,ioos:station:TCOON:009:1,2016-06-03T03:12:00Z,27.8398,-97.0727,26.0,11111222 
TCOON,ioos:station:TCOON:009:1,2016-06-03T03:18:00Z,27.8398,-97.0727,26.0,1111122 
TCOON,ioos:station:TCOON:009:1,2016-06-03T03:24:00Z,27.8398,-97.0727,26.2,11111222 
TCOON,ioos:station:TCOON:009:1,2016-06-03T03:30:00Z,27.8398,-97.0727,26.1,11111222 
TCOON,ioos:station:TCOON:009:1,2016-06-03T03:36:00Z,27.8398,-97.0727,26.1,11111222 
TCOON,ioos:station:TCOON:009:1,2016-06-03T03:42:00Z,27.8398,-97.0727,25.9,11111222 
TCOON,ioos:station:TCOON:009:1,2016-06-03T03:48:00Z,27.8398,-97.0727,25.9,11111222 
TCOON,ioos:station:TCOON:009:1,2016-06-03T03:54:00Z,27.8398,-97.0727,26.0,11111222 
TCOON,ioos:station:TCOON:009:1,2016-06-03T04:00:00Z,27.8398,-97.0727,26.1,11111222 
TCOON,ioos:station:TCOON:009:1,2016-06-03T04:06:00Z,27.8398,-97.0727,26.0,11111222 
TCOON,ioos:station:TCOON:009:1,2016-06-03T04:12:00Z,27.8398,-97.0727,26.1,11111222 
TCOON,ioos:station:TCOON:009:1,2016-06-03T04:18:00Z,27.8398,-97.0727,26.1,11111222 
TCOON,ioos:station:TCOON:009:1,2016-06-03T04:24:00Z,27.8398,-97.0727,26.2,11111222 
TCOON,ioos:station:TCOON:009:1,2016-06-03T04:30:00Z,27.8398,-97.0727,26.2,11111222 
TCOON,ioos:station:TCOON:009:1,2016-06-03T04:36:00Z,27.8398,-97.0727,26.2,1111122 
TCOON,ioos:station:TCOON:009:1,2016-06-03T04:42:00Z,27.8398,-97.0727,26.2,11111222 
TCOON,ioos:station:TCOON:009:1,2016-06-03T04:48:00Z,27.8398,-97.0727,26.0,11111222 
TCOON,ioos:station:TCOON:009:1,2016-06-03T04:54:00Z,27.8398,-97.0727,26.0,11111222 
TCOON,ioos:station:TCOON:009:1,2016-06-03T05:00:00Z,27.8398,-97.0727,26.0,11111222 
TCOON,ioos:station:TCOON:009:1,2016-06-03T05:06:00Z,27.8398,-97.0727,26.0,11111222 
TCOON,ioos:station:TCOON:009:1,2016-06-03T05:12:00Z,27.8398,-97.0727,26.0,11111222 
TCOON,ioos:station:TCOON:009:1,2016-06-03T05:18:00Z,27.8398,-97.0727,26.0,11111222 
TCOON,ioos:station:TCOON:009:1,2016-06-03T05:24:00Z,27.8398,-97.0727,26.0,1111122 
TCOON,ioos:station:TCOON:009:1,2016-06-03T05:30:00Z,27.8398,-97.0727,26.2,11111222 
TCOON,ioos:station:TCOON:009:1,2016-06-03T05:36:00Z,27.8398,-97.0727,26.3,11111222 
TCOON,ioos:station:TCOON:009:1,2016-06-03T05:42:00Z,27.8398,-97.0727,26.1,11111222 
TCOON,ioos:station:TCOON:009:1,2016-06-03T05:48:00Z,27.8398,-97.0727,26.1,11111222 
TCOON,ioos:station:TCOON:009:1,2016-06-03T05:54:00Z,27.8398,-97.0727,26.1,11111222 
TCOON,ioos:station:TCOON:009:1,2016-06-03T06:00:00Z,27.8398,-97.0727,25.9,11111222 
TCOON,ioos:station:TCOON:009:1,2016-06-03T06:06:00Z,27.8398,-97.0727,24.9,11111222 
TCOON,ioos:station:TCOON:009:1,2016-06-03T06:12:00Z,27.8398,-97.0727,23.9,11111222 
TCOON,ioos:station:TCOON:009:1,2016-06-03T06:18:00Z,27.8398,-97.0727,23.6,11111222 
TCOON,ioos:station:TCOON:009:1,2016-06-03T06:24:00Z,27.8398,-97.0727,23.5,11111222 
TCOON,ioos:station:TCOON:009:1,2016-06-03T06:30:00Z,27.8398,-97.0727,23.4,11111222 
TCOON,ioos:station:TCOON:009:1,2016-06-03T06:36:00Z,27.8398,-97.0727,23.4,1111122 
TCOON,ioos:station:TCOON:009:1,2016-06-03T06:42:00Z,27.8398,-97.0727,23.0,11111222 
TCOON,ioos:station:TCOON:009:1,2016-06-03T06:48:00Z,27.8398,-97.0727,22.8,11111222 
TCOON,ioos:station:TCOON:009:1,2016-06-03T06:54:00Z,27.8398,-97.0727,21.4,11111222 
TCOON,ioos:station:TCOON:009:1,2016-06-03T07:00:00Z,27.8398,-97.0727,21.0,11111222 
TCOON,ioos:station:TCOON:009:1,2016-06-03T07:06:00Z,27.8398,-97.0727,21.0,11111222 
TCOON,ioos:station:TCOON:009:1,2016-06-03T07:12:00Z,27.8398,-97.0727,21.3,11111222 
TCOON,ioos:station:TCOON:009:1,2016-06-03T07:18:00Z,27.8398,-97.0727,21.5,11111222 
TCOON,ioos:station:TCOON:009:1,2016-06-03T07:24:00Z,27.8398,-97.0727,21.4,11111222 
TCOON,ioos:station:TCOON:009:1,2016-06-03T07:30:00Z,27.8398,-97.0727,21.7,11111222 
TCOON,ioos:station:TCOON:009:1,2016-06-03T07:36:00Z,27.8398,-97.0727,21.9,11111222 
TCOON,ioos:station:TCOON:009:1,2016-06-03T07:42:00Z,27.8398,-97.0727,21.9,1111122 
TCOON,ioos:station:TCOON:009:1,2016-06-03T07:48:00Z,27.8398,-97.0727,22.1,11111222 
TCOON,ioos:station:TCOON:009:1,2016-06-03T07:54:00Z,27.8398,-97.0727,22.4,11111222 
TCOON,ioos:station:TCOON:009:1,2016-06-03T08:00:00Z,27.8398,-97.0727,22.5,11111222 
TCOON,ioos:station:TCOON:009:1,2016-06-03T08:06:00Z,27.8398,-97.0727,22.5,11111222 
TCOON,ioos:station:TCOON:009:1,2016-06-03T08:12:00Z,27.8398,-97.0727,22.8,11111222 
TCOON,ioos:station:TCOON:009:1,2016-06-03T08:18:00Z,27.8398,-97.0727,22.8,1111122 
TCOON,ioos:station:TCOON:009:1,2016-06-03T08:24:00Z,27.8398,-97.0727,22.9,11111222 
TCOON,ioos:station:TCOON:009:1,2016-06-03T08:30:00Z,27.8398,-97.0727,23.2,11111222 
TCOON,ioos:station:TCOON:009:1,2016-06-03T08:36:00Z,27.8398,-97.0727,23.1,11111222 
TCOON,ioos:station:TCOON:009:1,2016-06-03T08:42:00Z,27.8398,-97.0727,23.2,11111222 
TCOON,ioos:station:TCOON:009:1,2016-06-03T08:48:00Z,27.8398,-97.0727,23.3,11111222 
TCOON,ioos:station:TCOON:009:1,2016-06-03T08:54:00Z,27.8398,-97.0727,23.2,11111222 
TCOON,ioos:station:TCOON:009:1,2016-06-03T09:00:00Z,27.8398,-97.0727,23.2,11111222 
TCOON,ioos:station:TCOON:009:1,2016-06-03T09:06:00Z,27.8398,-97.0727,23.1,11111222 
TCOON,ioos:station:TCOON:009:1,2016-06-03T09:12:00Z,27.8398,-97.0727,23.2,11111222 
TCOON,ioos:station:TCOON:009:1,2016-06-03T09:18:00Z,27.8398,-97.0727,23.3,11111222 
TCOON,ioos:station:TCOON:009:1,2016-06-03T09:24:00Z,27.8398,-97.0727,23.3,1111122 
TCOON,ioos:station:TCOON:009:1,2016-06-03T09:30:00Z,27.8398,-97.0727,23.5,11111222 
TCOON,ioos:station:TCOON:009:1,2016-06-03T09:36:00Z,27.8398,-97.0727,23.3,11111222 
TCOON,ioos:station:TCOON:009:1,2016-06-03T09:42:00Z,27.8398,-97.0727,23.0,11111222 
TCOON,ioos:station:TCOON:009:1,2016-06-03T09:48:00Z,27.8398,-97.0727,23.0,11111222 
TCOON,ioos:station:TCOON:009:1,2016-06-03T09:54:00Z,27.8398,-97.0727,23.1,11111222 
TCOON,ioos:station:TCOON:009:1,2016-06-03T10:00:00Z,27.8398,-97.0727,22.9,11111222 
TCOON,ioos:station:TCOON:009:1,2016-06-03T10:06:00Z,27.8398,-97.0727,23.0,11111222 
TCOON,ioos:station:TCOON:009:1,2016-06-03T10:12:00Z,27.8398,-97.0727,23.3,11111222 
TCOON,ioos:station:TCOON:009:1,2016-06-03T10:18:00Z,27.8398,-97.0727,23.3,11111222 
TCOON,ioos:station:TCOON:009:1,2016-06-03T10:24:00Z,27.8398,-97.0727,23.3,11111222 
TCOON,ioos:station:TCOON:009:1,2016-06-03T10:30:00Z,27.8398,-97.0727,23.3,11111222 
TCOON,ioos:station:TCOON:009:1,2016-06-03T10:36:00Z,27.8398,-97.0727,23.3,11111222 
TCOON,ioos:station:TCOON:009:1,2016-06-03T10:42:00Z,27.8398,-97.0727,23.3,1111122 
TCOON,ioos:station:TCOON:009:1,2016-06-03T10:48:00Z,27.8398,-97.0727,23.9,11111222 
TCOON,ioos:station:TCOON:009:1,2016-06-03T10:54:00Z,27.8398,-97.0727,24.0,11111222 
TCOON,ioos:station:TCOON:009:1,2016-06-03T11:00:00Z,27.8398,-97.0727,24.2,11111222 
TCOON,ioos:station:TCOON:009:1,2016-06-03T11:06:00Z,27.8398,-97.0727,24.2,11111222 
TCOON,ioos:station:TCOON:009:1,2016-06-03T11:12:00Z,27.8398,-97.0727,24.1,11111222 
TCOON,ioos:station:TCOON:009:1,2016-06-03T11:18:00Z,27.8398,-97.0727,23.8,11111222 
TCOON,ioos:station:TCOON:009:1,2016-06-03T11:24:00Z,27.8398,-97.0727,23.6,11111222 
TCOON,ioos:station:TCOON:009:1,2016-06-03T11:30:00Z,27.8398,-97.0727,23.5,11111222 
TCOON,ioos:station:TCOON:009:1,2016-06-03T11:36:00Z,27.8398,-97.0727,23.5,1111122 
TCOON,ioos:station:TCOON:009:1,2016-06-03T11:42:00Z,27.8398,-97.0727,23.5,11111222 
TCOON,ioos:station:TCOON:009:1,2016-06-03T11:48:00Z,27.8398,-97.0727,23.5,11111222 
TCOON,ioos:station:TCOON:009:1,2016-06-03T11:54:00Z,27.8398,-97.0727,23.7,11111222 
TCOON,ioos:station:TCOON:009:1,2016-06-03T12:00:00Z,27.8398,-97.0727,23.6,11111222 
TCOON,ioos:station:TCOON:009:1,2016-06-03T12:06:00Z,27.8398,-97.0727,23.8,11111222 
TCOON,ioos:station:TCOON:009:1,2016-06-03T12:12:00Z,27.8398,-97.0727,24.2,11111222 
TCOON,ioos:station:TCOON:009:1,2016-06-03T12:18:00Z,27.8398,-97.0727,24.7,11111222 
TCOON,ioos:station:TCOON:009:1,2016-06-03T12:24:00Z,27.8398,-97.0727,24.7,1111122 
TCOON,ioos:station:TCOON:009:1,2016-06-03T12:30:00Z,27.8398,-97.0727,24.8,11111222 
TCOON,ioos:station:TCOON:009:1,2016-06-03T12:36:00Z,27.8398,-97.0727,24.7,11111222 
TCOON,ioos:station:TCOON:009:1,2016-06-03T12:42:00Z,27.8398,-97.0727,24.6,11111222 
TCOON,ioos:station:TCOON:009:1,2016-06-03T12:48:00Z,27.8398,-97.0727,24.4,11111222 
TCOON,ioos:station:TCOON:009:1,2016-06-03T12:54:00Z,27.8398,-97.0727,24.8,11111222 
TCOON,ioos:station:TCOON:009:1,2016-06-03T13:00:00Z,27.8398,-97.0727,24.7,11111222 
TCOON,ioos:station:TCOON:009:1,2016-06-03T13:06:00Z,27.8398,-97.0727,25.3,11111222 
TCOON,ioos:station:TCOON:009:1,2016-06-03T13:12:00Z,27.8398,-97.0727,25.8,11111222 
TCOON,ioos:station:TCOON:009:1,2016-06-03T13:18:00Z,27.8398,-97.0727,26.9,11111222 
TCOON,ioos:station:TCOON:009:1,2016-06-03T13:24:00Z,27.8398,-97.0727,26.9,1111122 
TCOON,ioos:station:TCOON:009:1,2016-06-03T13:30:00Z,27.8398,-97.0727,26.0,11111222 
TCOON,ioos:station:TCOON:009:1,2016-06-03T13:36:00Z,27.8398,-97.0727,25.8,11111222 
TCOON,ioos:station:TCOON:009:1,2016-06-03T13:42:00Z,27.8398,-97.0727,25.5,11111222 
TCOON,ioos:station:TCOON:009:1,2016-06-03T13:48:00Z,27.8398,-97.0727,25.3,11111222 
TCOON,ioos:station:TCOON:009:1,2016-06-03T13:54:00Z,27.8398,-97.0727,25.4,11111222 
TCOON,ioos:station:TCOON:009:1,2016-06-03T14:00:00Z,27.8398,-97.0727,25.4,11111222 
TCOON,ioos:station:TCOON:009:1,2016-06-03T14:06:00Z,27.8398,-97.0727,25.8,11111222 
TCOON,ioos:station:TCOON:009:1,2016-06-03T14:12:00Z,27.8398,-97.0727,25.6,11111222 
TCOON,ioos:station:TCOON:009:1,2016-06-03T14:18:00Z,27.8398,-97.0727,25.6,11111222 
TCOON,ioos:station:TCOON:009:1,2016-06-03T14:24:00Z,27.8398,-97.0727,25.7,11111222 
TCOON,ioos:station:TCOON:009:1,2016-06-03T14:30:00Z,27.8398,-97.0727,25.9,11111222 
TCOON,ioos:station:TCOON:009:1,2016-06-03T14:36:00Z,27.8398,-97.0727,25.9,1111122 
TCOON,ioos:station:TCOON:009:1,2016-06-03T14:42:00Z,27.8398,-97.0727,25.8,11111222 
TCOON,ioos:station:TCOON:009:1,2016-06-03T14:48:00Z,27.8398,-97.0727,25.6,11111222 
TCOON,ioos:station:TCOON:009:1,2016-06-03T14:54:00Z,27.8398,-97.0727,25.6,11111222 
TCOON,ioos:station:TCOON:009:1,2016-06-03T15:00:00Z,27.8398,-97.0727,25.7,11111222 
TCOON,ioos:station:TCOON:009:1,2016-06-03T15:06:00Z,27.8398,-97.0727,25.7,11111222 
TCOON,ioos:station:TCOON:009:1,2016-06-03T15:12:00Z,27.8398,-97.0727,26.0,11111222 
TCOON,ioos:station:TCOON:009:1,2016-06-03T15:18:00Z,27.8398,-97.0727,25.9,11111222 
TCOON,ioos:station:TCOON:009:1,2016-06-03T15:24:00Z,27.8398,-97.0727,26.0,11111222 
TCOON,ioos:station:TCOON:009:1,2016-06-03T15:30:00Z,27.8398,-97.0727,26.1,11111222 
TCOON,ioos:station:TCOON:009:1,2016-06-03T15:36:00Z,27.8398,-97.0727,26.1,1111122 
TCOON,ioos:station:TCOON:009:1,2016-06-03T15:42:00Z,27.8398,-97.0727,26.0,11111222 
TCOON,ioos:station:TCOON:009:1,2016-06-03T15:48:00Z,27.8398,-97.0727,25.9,11111222 
TCOON,ioos:station:TCOON:009:1,2016-06-03T15:54:00Z,27.8398,-97.0727,25.7,11111222 
TCOON,ioos:station:TCOON:009:1,2016-06-03T16:00:00Z,27.8398,-97.0727,25.6,11111222 
TCOON,ioos:station:TCOON:009:1,2016-06-03T16:06:00Z,27.8398,-97.0727,25.6,11111222 
TCOON,ioos:station:TCOON:009:1,2016-06-03T16:12:00Z,27.8398,-97.0727,25.8,11111222 
TCOON,ioos:station:TCOON:009:1,2016-06-03T16:18:00Z,27.8398,-97.0727,25.6,11111222 
TCOON,ioos:station:TCOON:009:1,2016-06-03T16:24:00Z,27.8398,-97.0727,25.1,11111222 
TCOON,ioos:station:TCOON:009:1,2016-06-03T16:30:00Z,27.8398,-97.0727,25.1,11111222 
TCOON,ioos:station:TCOON:009:1,2016-06-03T16:36:00Z,27.8398,-97.0727,25.1,1111122 
TCOON,ioos:station:TCOON:009:1,2016-06-03T16:42:00Z,27.8398,-97.0727,25.3,11111222 
TCOON,ioos:station:TCOON:009:1,2016-06-03T16:48:00Z,27.8398,-97.0727,25.5,11111222 
TCOON,ioos:station:TCOON:009:1,2016-06-03T16:54:00Z,27.8398,-97.0727,25.5,11111222 
TCOON,ioos:station:TCOON:009:1,2016-06-03T17:00:00Z,27.8398,-97.0727,25.6,11111222 
TCOON,ioos:station:TCOON:009:1,2016-06-03T17:06:00Z,27.8398,-97.0727,25.8,11111222 
TCOON,ioos:station:TCOON:009:1,2016-06-03T17:12:00Z,27.8398,-97.0727,25.6,11111222 
TCOON,ioos:station:TCOON:009:1,2016-06-03T17:18:00Z,27.8398,-97.0727,25.6,1111122 
TCOON,ioos:station:TCOON:009:1,2016-06-03T17:24:00Z,27.8398,-97.0727,25.3,11111222 
TCOON,ioos:station:TCOON:009:1,2016-06-03T17:30:00Z,27.8398,-97.0727,25.3,11111222 
TCOON,ioos:station:TCOON:009:1,2016-06-03T17:36:00Z,27.8398,-97.0727,25.3,11111222 
TCOON,ioos:station:TCOON:009:1,2016-06-03T17:42:00Z,27.8398,-97.0727,25.3,11111222 
TCOON,ioos:station:TCOON:009:1,2016-06-03T17:48:00Z,27.8398,-97.0727,25.2,11111222 
TCOON,ioos:station:TCOON:009:1,2016-06-03T17:54:00Z,27.8398,-97.0727,25.1,11111222 
TCOON,ioos:station:TCOON:009:1,2016-06-03T18:00:00Z,27.8398,-97.0727,25.1,11111222 
TCOON,ioos:station:TCOON:009:1,2016-06-03T18:06:00Z,27.8398,-97.0727,25.3,11111222 
TCOON,ioos:station:TCOON:009:1,2016-06-03T18:12:00Z,27.8398,-97.0727,25.3,1111122 
TCOON,ioos:station:TCOON:009:1,2016-06-03T18:18:00Z,27.8398,-97.0727,25.2,11111222 
TCOON,ioos:station:TCOON:009:1,2016-06-03T18:24:00Z,27.8398,-97.0727,25.6,11111222 
TCOON,ioos:station:TCOON:009:1,2016-06-03T18:30:00Z,27.8398,-97.0727,25.4,11111222 
TCOON,ioos:station:TCOON:009:1,2016-06-03T18:36:00Z,27.8398,-97.0727,25.6,11111222 
TCOON,ioos:station:TCOON:009:1,2016-06-03T18:42:00Z,27.8398,-97.0727,25.6,11111222 
TCOON,ioos:station:TCOON:009:1,2016-06-03T18:48:00Z,27.8398,-97.0727,25.4,11111222 
TCOON,ioos:station:TCOON:009:1,2016-06-03T18:54:00Z,27.8398,-97.0727,25.7,11111222 
TCOON,ioos:station:TCOON:009:1,2016-06-03T19:00:00Z,27.8398,-97.0727,25.7,11111222 
TCOON,ioos:station:TCOON:009:1,2016-06-03T19:06:00Z,27.8398,-97.0727,25.9,11111222 
TCOON,ioos:station:TCOON:009:1,2016-06-03T19:12:00Z,27.8398,-97.0727,25.9,1111122 
TCOON,ioos:station:TCOON:009:1,2016-06-03T19:18:00Z,27.8398,-97.0727,25.7,11111222 
TCOON,ioos:station:TCOON:009:1,2016-06-03T19:24:00Z,27.8398,-97.0727,25.5,11111222 
TCOON,ioos:station:TCOON:009:1,2016-06-03T19:30:00Z,27.8398,-97.0727,25.6,11111222 
TCOON,ioos:station:TCOON:009:1,2016-06-03T19:36:00Z,27.8398,-97.0727,25.5,11111222 
TCOON,ioos:station:TCOON:009:1,2016-06-03T19:42:00Z,27.8398,-97.0727,26.0,11111222 
TCOON,ioos:station:TCOON:009:1,2016-06-03T19:48:00Z,27.8398,-97.0727,26.0,11111222 
TCOON,ioos:station:TCOON:009:1,2016-06-03T19:54:00Z,27.8398,-97.0727,25.9,11111222 
TCOON,ioos:station:TCOON:009:1,2016-06-03T20:00:00Z,27.8398,-97.0727,26.1,11111222 
TCOON,ioos:station:TCOON:009:1,2016-06-03T20:06:00Z,27.8398,-97.0727,26.1,11111222 
TCOON,ioos:station:TCOON:009:1,2016-06-03T20:12:00Z,27.8398,-97.0727,26.1,1111122 
TCOON,ioos:station:TCOON:009:1,2016-06-03T20:18:00Z,27.8398,-97.0727,26.0,11111222 
TCOON,ioos:station:TCOON:009:1,2016-06-03T20:24:00Z,27.8398,-97.0727,26.0,11111222 
TCOON,ioos:station:TCOON:009:1,2016-06-03T20:30:00Z,27.8398,-97.0727,26.0,11111222 
TCOON,ioos:station:TCOON:009:1,2016-06-03T20:36:00Z,27.8398,-97.0727,26.1,11111222 
TCOON,ioos:station:TCOON:009:1,2016-06-03T20:42:00Z,27.8398,-97.0727,26.1,11111222 
TCOON,ioos:station:TCOON:009:1,2016-06-03T20:48:00Z,27.8398,-97.0727,26.2,11111222 
TCOON,ioos:station:TCOON:009:1,2016-06-03T20:54:00Z,27.8398,-97.0727,26.0,11111222 
TCOON,ioos:station:TCOON:009:1,2016-06-03T21:00:00Z,27.8398,-97.0727,23.6,11111222 
TCOON,ioos:station:TCOON:009:1,2016-06-03T21:06:00Z,27.8398,-97.0727,23.1,11111222 
TCOON,ioos:station:TCOON:009:1,2016-06-03T21:12:00Z,27.8398,-97.0727,23.1,1111122 
TCOON,ioos:station:TCOON:009:1,2016-06-03T21:18:00Z,27.8398,-97.0727,23.2,11111222 
TCOON,ioos:station:TCOON:009:1,2016-06-03T21:24:00Z,27.8398,-97.0727,23.3,11111222 
TCOON,ioos:station:TCOON:009:1,2016-06-03T21:30:00Z,27.8398,-97.0727,23.2,11111222 
TCOON,ioos:station:TCOON:009:1,2016-06-03T22:06:00Z,27.8398,-97.0727,24.4,11111222 
TCOON,ioos:station:TCOON:009:1,2016-06-03T22:12:00Z,27.8398,-97.0727,24.4,1111122 
TCOON,ioos:station:TCOON:009:1,2016-06-03T22:18:00Z,27.8398,-97.0727,24.8,11111222 
TCOON,ioos:station:TCOON:009:1,2016-06-03T23:06:00Z,27.8398,-97.0727,24.7,11111222 
TCOON,ioos:station:TCOON:009:1,2016-06-03T23:12:00Z,27.8398,-97.0727,24.7,1111122 
TCOON,ioos:station:TCOON:009:1,2016-06-03T23:18:00Z,27.8398,-97.0727,24.7,11111222 
TCOON,ioos:station:TCOON:009:1,2016-06-04T00:06:00Z,27.8398,-97.0727,25.1,11111222 
TCOON,ioos:station:TCOON:009:1,2016-06-04T00:12:00Z,27.8398,-97.0727,25.1,1111122 
TCOON,ioos:station:TCOON:009:1,2016-06-04T00:18:00Z,27.8398,-97.0727,25.3,11111222 
TCOON,ioos:station:TCOON:009:1,2016-06-04T01:12:00Z,27.8398,-97.0727,25.2,1111122 
TCOON,ioos:station:TCOON:009:1,2016-06-04T02:12:00Z,27.8398,-97.0727,24.8,1111122 
TCOON,ioos:station:TCOON:009:1,2016-06-04T03:06:00Z,27.8398,-97.0727,25.0,11111222 
TCOON,ioos:station:TCOON:009:1,2016-06-04T03:12:00Z,27.8398,-97.0727,25.0,1111122 
TCOON,ioos:station:TCOON:009:1,2016-06-04T03:18:00Z,27.8398,-97.0727,24.9,11111222 
TCOON,ioos:station:TCOON:009:1,2016-06-04T03:24:00Z,27.8398,-97.0727,24.9,11111222 
TCOON,ioos:station:TCOON:009:1,2016-06-04T03:30:00Z,27.8398,-97.0727,24.8,11111222 
TCOON,ioos:station:TCOON:009:1,2016-06-04T03:36:00Z,27.8398,-97.0727,24.9,11111222 
TCOON,ioos:station:TCOON:009:1,2016-06-04T03:42:00Z,27.8398,-97.0727,24.9,11111222 
TCOON,ioos:station:TCOON:009:1,2016-06-04T03:48:00Z,27.8398,-97.0727,25.0,11111222 
TCOON,ioos:station:TCOON:009:1,2016-06-04T03:54:00Z,27.8398,-97.0727,25.0,11111222 
TCOON,ioos:station:TCOON:009:1,2016-06-04T04:00:00Z,27.8398,-97.0727,25.0,11111222 
TCOON,ioos:station:TCOON:009:1,2016-06-04T04:06:00Z,27.8398,-97.0727,24.9,11111222 
TCOON,ioos:station:TCOON:009:1,2016-06-04T04:12:00Z,27.8398,-97.0727,24.9,1111122 
TCOON,ioos:station:TCOON:009:1,2016-06-04T04:18:00Z,27.8398,-97.0727,24.9,11111222 
TCOON,ioos:station:TCOON:009:1,2016-06-04T04:24:00Z,27.8398,-97.0727,24.9,11111222 
TCOON,ioos:station:TCOON:009:1,2016-06-04T04:30:00Z,27.8398,-97.0727,24.9,11111222 
TCOON,ioos:station:TCOON:009:1,2016-06-04T04:36:00Z,27.8398,-97.0727,25.0,11111222 
TCOON,ioos:station:TCOON:009:1,2016-06-04T04:42:00Z,27.8398,-97.0727,25.0,11111222 
TCOON,ioos:station:TCOON:009:1,2016-06-04T04:48:00Z,27.8398,-97.0727,25.0,11111222 
TCOON,ioos:station:TCOON:009:1,2016-06-04T04:54:00Z,27.8398,-97.0727,25.1,11111222 
TCOON,ioos:station:TCOON:009:1,2016-06-04T05:00:00Z,27.8398,-97.0727,25.2,11111222 
TCOON,ioos:station:TCOON:009:1,2016-06-04T05:06:00Z,27.8398,-97.0727,25.2,11111222 
TCOON,ioos:station:TCOON:009:1,2016-06-04T05:12:00Z,27.8398,-97.0727,25.2,11111222 
TCOON,ioos:station:TCOON:009:1,2016-06-04T05:18:00Z,27.8398,-97.0727,25.2,1111122 
TCOON,ioos:station:TCOON:009:1,2016-06-04T05:24:00Z,27.8398,-97.0727,25.3,11111222 
TCOON,ioos:station:TCOON:009:1,2016-06-04T05:30:00Z,27.8398,-97.0727,25.3,11111222 
TCOON,ioos:station:TCOON:009:1,2016-06-04T05:36:00Z,27.8398,-97.0727,25.2,11111222 
TCOON,ioos:station:TCOON:009:1,2016-06-04T05:42:00Z,27.8398,-97.0727,25.2,11111222 
TCOON,ioos:station:TCOON:009:1,2016-06-04T05:48:00Z,27.8398,-97.0727,25.1,11111222 
TCOON,ioos:station:TCOON:009:1,2016-06-04T05:54:00Z,27.8398,-97.0727,25.2,11111222 
TCOON,ioos:station:TCOON:009:1,2016-06-04T06:00:00Z,27.8398,-97.0727,25.1,11111222 
TCOON,ioos:station:TCOON:009:1,2016-06-04T06:06:00Z,27.8398,-97.0727,25.2,11111222 
TCOON,ioos:station:TCOON:009:1,2016-06-04T06:12:00Z,27.8398,-97.0727,25.2,11111222 
TCOON,ioos:station:TCOON:009:1,2016-06-04T06:18:00Z,27.8398,-97.0727,25.2,1111122 
TCOON,ioos:station:TCOON:009:1,2016-06-04T06:24:00Z,27.8398,-97.0727,25.0,11111222 
TCOON,ioos:station:TCOON:009:1,2016-06-04T06:30:00Z,27.8398,-97.0727,24.9,11111222 
TCOON,ioos:station:TCOON:009:1,2016-06-04T06:36:00Z,27.8398,-97.0727,25.0,11111222 
TCOON,ioos:station:TCOON:009:1,2016-06-04T06:42:00Z,27.8398,-97.0727,25.0,11111222 
TCOON,ioos:station:TCOON:009:1,2016-06-04T06:48:00Z,27.8398,-97.0727,25.1,11111222 
TCOON,ioos:station:TCOON:009:1,2016-06-04T06:54:00Z,27.8398,-97.0727,25.0,11111222 
TCOON,ioos:station:TCOON:009:1,2016-06-04T07:00:00Z,27.8398,-97.0727,25.0,11111222 
TCOON,ioos:station:TCOON:009:1,2016-06-04T07:06:00Z,27.8398,-97.0727,25.0,11111222 
TCOON,ioos:station:TCOON:009:1,2016-06-04T07:12:00Z,27.8398,-97.0727,25.0,11111222 
TCOON,ioos:station:TCOON:009:1,2016-06-04T07:18:00Z,27.8398,-97.0727,25.0,1111122 
TCOON,ioos:station:TCOON:009:1,2016-06-04T07:24:00Z,27.8398,-97.0727,25.1,11111222 
TCOON,ioos:station:TCOON:009:1,2016-06-04T07:30:00Z,27.8398,-97.0727,25.1,11111222 
TCOON,ioos:station:TCOON:009:1,2016-06-04T07:36:00Z,27.8398,-97.0727,25.1,11111222 
TCOON,ioos:station:TCOON:009:1,2016-06-04T07:42:00Z,27.8398,-97.0727,25.1,11111222 
TCOON,ioos:station:TCOON:009:1,2016-06-04T07:48:00Z,27.8398,-97.0727,25.2,11111222 
TCOON,ioos:station:TCOON:009:1,2016-06-04T07:54:00Z,27.8398,-97.0727,25.3,11111222 
TCOON,ioos:station:TCOON:009:1,2016-06-04T08:00:00Z,27.8398,-97.0727,25.6,11111222 
TCOON,ioos:station:TCOON:009:1,2016-06-04T08:06:00Z,27.8398,-97.0727,26.0,11111222 
TCOON,ioos:station:TCOON:009:1,2016-06-04T08:12:00Z,27.8398,-97.0727,26.0,1111122 
TCOON,ioos:station:TCOON:009:1,2016-06-04T08:18:00Z,27.8398,-97.0727,25.5,11111222 
TCOON,ioos:station:TCOON:009:1,2016-06-04T08:24:00Z,27.8398,-97.0727,25.2,11111222 
TCOON,ioos:station:TCOON:009:1,2016-06-04T08:30:00Z,27.8398,-97.0727,24.9,11111222 
TCOON,ioos:station:TCOON:009:1,2016-06-04T08:36:00Z,27.8398,-97.0727,25.0,11111222 
TCOON,ioos:station:TCOON:009:1,2016-06-04T08:42:00Z,27.8398,-97.0727,24.6,11111222 
TCOON,ioos:station:TCOON:009:1,2016-06-04T08:48:00Z,27.8398,-97.0727,24.8,11111222 
TCOON,ioos:station:TCOON:009:1,2016-06-04T08:54:00Z,27.8398,-97.0727,24.7,11111222 